Portada
METAR-TAF:

METAR-TAF

Aeroports :

Monbetsu, Japó

latitud: 44-15N, longitud: 143-32E, altitud: 6 m

Observació

L'informe es va fer fa 9 hores i 35 minuts, a les 07:00 UTC
Vent 10 kt del Oest/Nord-Oest
Temperatura -5°C
Humitat 58%
Pressió 1010 hPa
Visibilitat 10 km o més
Escasses núvols a una alçada de 3000 ft
Núvols disperses a una alçada de 5000 ft
xàfecs de neu

METAR: RJEB 310700Z 30010KT 9999 -SHSN FEW030 SCT050 M05/M12 Q1010

Hora: 01:35 (16:35 UTC)


TAF: manca

Observacions i pronòstics meteorològics de més de 4000 aeroports (METAR i TAF).

Les estacions disponibles són els punts grocs i vermells al mapa.

Posi el ratolí al punt desitjat per veure el nom de l'estació.

Feu clic per veure les observacions i els pronòstics meteorològics.

Per canviar el mapa: feu clic els botons verds amb una creu de color negre per apropar; al botó verd amb un guió per allunyar la imatge; o en les fletxes verdes per a mapes adjacents.


METAR-TAF: